• In Deutschland
  • Länderverzeichnis
  • Für 7 Tage
  • Wassertemperatur
  • Satellitenkarten
  • Wetterkarte
  • Widgets
  • user-avatar
    Anmelden

    Stündliche Wetter Qala i Naw

    Heute, 13 Dezember, Mittwoch

    Zeit Temperatur Niederschläge Wind Luftdruck Luftfeuchtigkeit
    00:00 0°C° 0 mm 1 m/S 685 mmHg 46%
    01:00 0°C° 0 mm 1 m/S 685 mmHg 47%
    02:00 -1°C° 0 mm 1 m/S 684 mmHg 48%
    03:00 -1°C° 0 mm 1 m/S 684 mmHg 49%
    04:00 -1°C° 0 mm 1 m/S 684 mmHg 50%
    05:00 -1°C° 0 mm 1 m/S 684 mmHg 50%
    06:00 -3°C° 0 mm 0 m/S 684 mmHg 51%
    07:00 -3°C° 0 mm 0 m/S 684 mmHg 52%
    08:00 0°C° 0 mm 1 m/S 684 mmHg 46%
    09:00 +1°C° 0 mm 1 m/S 684 mmHg 41%
    10:00 +3°C° 0 mm 1 m/S 684 mmHg 35%
    11:00 +3°C° 0 mm 2 m/S 684 mmHg 34%
    12:00 +3°C° 0 mm 2 m/S 683 mmHg 32%
    13:00 +4°C° 0 mm 2 m/S 683 mmHg 31%
    14:00 +4°C° 0 mm 2 m/S 683 mmHg 32%
    15:00 +3°C° 0 mm 2 m/S 683 mmHg 33%
    16:00 +3°C° 0 mm 2 m/S 683 mmHg 34%
    17:00 +2°C° 0 mm 2 m/S 683 mmHg 37%
    18:00 +2°C° 0 mm 2 m/S 683 mmHg 39%
    19:00 +2°C° 0 mm 1 m/S 684 mmHg 41%
    20:00 +2°C° 0 mm 1 m/S 684 mmHg 42%
    21:00 +1°C° 0 mm 1 m/S 684 mmHg 43%
    22:00 +1°C° 0 mm 1 m/S 684 mmHg 44%
    23:00 +1°C° 0 mm 1 m/S 684 mmHg 45%

    Morgen, 14 Dezember, Donnerstag

    Zeit Temperatur Niederschläge Wind Luftdruck Luftfeuchtigkeit
    00:00 0°C° 0 mm 1 m/S 684 mmHg 47%
    01:00 0°C° 0 mm 1 m/S 684 mmHg 48%
    02:00 0°C° 0 mm 1 m/S 684 mmHg 49%
    03:00 -1°C° 0 mm 0 m/S 684 mmHg 50%
    04:00 -2°C° 0 mm 0 m/S 684 mmHg 51%
    05:00 -2°C° 0 mm 0 m/S 684 mmHg 52%
    06:00 -2°C° 0 mm 0 m/S 684 mmHg 54%
    07:00 -3°C° 0 mm 0 m/S 684 mmHg 55%
    08:00 0°C° 0 mm 1 m/S 685 mmHg 50%
    09:00 +2°C° 0 mm 1 m/S 685 mmHg 44%
    10:00 +3°C° 0 mm 1 m/S 686 mmHg 39%
    11:00 +3°C° 0 mm 2 m/S 686 mmHg 37%
    12:00 +4°C° 0 mm 2 m/S 685 mmHg 34%
    13:00 +5°C° 0 mm 2 m/S 685 mmHg 32%
    14:00 +5°C° 0 mm 2 m/S 685 mmHg 33%
    15:00 +4°C° 0 mm 2 m/S 685 mmHg 33%
    16:00 +4°C° 0 mm 2 m/S 685 mmHg 33%
    17:00 +3°C° 0 mm 2 m/S 685 mmHg 36%
    18:00 +3°C° 0 mm 1 m/S 685 mmHg 39%
    19:00 +2°C° 0 mm 1 m/S 685 mmHg 41%
    20:00 +2°C° 0 mm 1 m/S 685 mmHg 41%
    21:00 +2°C° 0 mm 1 m/S 685 mmHg 42%
    22:00 +2°C° 0 mm 1 m/S 685 mmHg 42%
    23:00 +1°C° 0 mm 1 m/S 684 mmHg 43%

    übermorgen, 15 Dezember, Freitag

    Zeit Temperatur Niederschläge Wind Luftdruck Luftfeuchtigkeit
    00:00 +1°C° 0 mm 1 m/S 684 mmHg 43%
    01:00 +1°C° 0 mm 1 m/S 684 mmHg 44%
    02:00 +1°C° 0 mm 1 m/S 684 mmHg 45%
    03:00 +1°C° 0 mm 1 m/S 684 mmHg 45%
    04:00 +1°C° 0 mm 1 m/S 683 mmHg 46%
    05:00 +1°C° 0 mm 1 m/S 684 mmHg 46%
    06:00 +1°C° 0 mm 1 m/S 684 mmHg 46%
    07:00 +1°C° 0 mm 1 m/S 684 mmHg 45%
    08:00 +3°C° 0 mm 1 m/S 685 mmHg 39%
    09:00 +5°C° 0 mm 2 m/S 685 mmHg 32%
    10:00 +7°C° 0 mm 2 m/S 686 mmHg 26%
    11:00 +8°C° 0 mm 2 m/S 685 mmHg 27%
    12:00 +9°C° 0 mm 1 m/S 685 mmHg 27%
    13:00 +10°C° 0 mm 1 m/S 684 mmHg 28%
    14:00 +10°C° 0,1 mm 1 m/S 684 mmHg 31%
    15:00 +10°C° 0,1 mm 1 m/S 684 mmHg 34%
    16:00 +9°C° 0,1 mm 1 m/S 684 mmHg 37%
    17:00 +9°C° 0,1 mm 1 m/S 684 mmHg 39%
    18:00 +8°C° 0,1 mm 1 m/S 685 mmHg 42%
    19:00 +6°C° 0,1 mm 2 m/S 685 mmHg 45%
    20:00 +6°C° 0 mm 2 m/S 685 mmHg 46%
    21:00 +6°C° 0 mm 2 m/S 685 mmHg 48%
    22:00 +6°C° 0 mm 2 m/S 685 mmHg 50%
    23:00 +6°C° 0 mm 2 m/S 685 mmHg 51%

    16 Dezember, Samstag

    Zeit Temperatur Niederschläge Wind Luftdruck Luftfeuchtigkeit
    00:00 +6°C° 0 mm 2 m/S 685 mmHg 52%
    01:00 +6°C° 0 mm 2 m/S 685 mmHg 53%
    02:00 +5°C° 0 mm 2 m/S 685 mmHg 53%
    03:00 +5°C° 0 mm 2 m/S 685 mmHg 54%
    04:00 +5°C° 0 mm 2 m/S 685 mmHg 54%
    05:00 +5°C° 0 mm 2 m/S 685 mmHg 55%
    06:00 +4°C° 0 mm 2 m/S 685 mmHg 55%
    07:00 +4°C° 0 mm 2 m/S 685 mmHg 55%
    08:00 +7°C° 0 mm 1 m/S 686 mmHg 48%
    09:00 +9°C° 0 mm 1 m/S 686 mmHg 41%
    10:00 +11°C° 0 mm 1 m/S 687 mmHg 34%
    11:00 +11°C° 0 mm 1 m/S 687 mmHg 32%
    12:00 +12°C° 0 mm 1 m/S 686 mmHg 29%
    13:00 +13°C° 0 mm 2 m/S 686 mmHg 27%
    14:00 +12°C° 0 mm 2 m/S 686 mmHg 28%
    15:00 +12°C° 0 mm 2 m/S 686 mmHg 29%
    16:00 +12°C° 0 mm 2 m/S 686 mmHg 31%
    17:00 +9°C° 0 mm 2 m/S 686 mmHg 35%
    18:00 +9°C° 0 mm 1 m/S 686 mmHg 38%
    19:00 +8°C° 0 mm 1 m/S 686 mmHg 42%
    20:00 +7°C° 0 mm 1 m/S 686 mmHg 42%
    21:00 +7°C° 0 mm 1 m/S 686 mmHg 43%
    22:00 +6°C° 0 mm 1 m/S 687 mmHg 43%
    23:00 +6°C° 0 mm 1 m/S 686 mmHg 43%

    17 Dezember, Sonntag

    Zeit Temperatur Niederschläge Wind Luftdruck Luftfeuchtigkeit
    00:00 +6°C° 0 mm 1 m/S 686 mmHg 43%
    01:00 +5°C° 0 mm 1 m/S 686 mmHg 44%
    02:00 +5°C° 0 mm 1 m/S 686 mmHg 44%
    03:00 +5°C° 0 mm 1 m/S 686 mmHg 45%
    04:00 +3°C° 0 mm 0 m/S 686 mmHg 45%
    05:00 +3°C° 0 mm 0 m/S 686 mmHg 45%
    06:00 +3°C° 0 mm 0 m/S 686 mmHg 45%
    07:00 +3°C° 0 mm 0 m/S 686 mmHg 45%
    08:00 +6°C° 0 mm 1 m/S 687 mmHg 39%
    09:00 +9°C° 0 mm 1 m/S 688 mmHg 33%
    10:00 +11°C° 0 mm 1 m/S 688 mmHg 27%
    11:00 +12°C° 0 mm 1 m/S 688 mmHg 25%
    12:00 +13°C° 0 mm 2 m/S 687 mmHg 24%
    13:00 +14°C° 0 mm 2 m/S 687 mmHg 22%
    14:00 +13°C° 0 mm 2 m/S 686 mmHg 24%
    15:00 +13°C° 0 mm 2 m/S 686 mmHg 26%
    16:00 +12°C° 0 mm 2 m/S 686 mmHg 28%
    17:00 +11°C° 0 mm 1 m/S 686 mmHg 30%
    18:00 +10°C° 0 mm 1 m/S 686 mmHg 32%
    19:00 +9°C° 0 mm 1 m/S 686 mmHg 35%
    20:00 +8°C° 0 mm 0 m/S 686 mmHg 35%
    21:00 +8°C° 0 mm 0 m/S 686 mmHg 36%
    22:00 +7°C° 0 mm 0 m/S 686 mmHg 36%
    23:00 +8°C° 0,1 mm 1 m/S 686 mmHg 38%

    18 Dezember, Montag

    Zeit Temperatur Niederschläge Wind Luftdruck Luftfeuchtigkeit
    00:00 +8°C° 0,1 mm 1 m/S 686 mmHg 39%
    01:00 +8°C° 0,1 mm 1 m/S 686 mmHg 41%
    02:00 +8°C° 0,1 mm 1 m/S 685 mmHg 45%
    03:00 +8°C° 0,1 mm 1 m/S 685 mmHg 48%
    04:00 +8°C° 0,1 mm 1 m/S 685 mmHg 52%
    05:00 +8°C° 0,2 mm 1 m/S 686 mmHg 55%
    06:00 +8°C° 0,2 mm 1 m/S 686 mmHg 59%
    07:00 +8°C° 0,2 mm 1 m/S 686 mmHg 62%
    08:00 +9°C° 0,1 mm 1 m/S 686 mmHg 59%
    09:00 +9°C° 0,1 mm 2 m/S 687 mmHg 57%
    10:00 +10°C° 0,1 mm 2 m/S 687 mmHg 54%
    11:00 +12°C° 0 mm 2 m/S 686 mmHg 50%
    12:00 +13°C° 0 mm 2 m/S 686 mmHg 47%
    13:00 +14°C° 0 mm 2 m/S 686 mmHg 43%
    14:00 +14°C° 0 mm 2 m/S 685 mmHg 44%
    15:00 +13°C° 0 mm 2 m/S 685 mmHg 46%
    16:00 +13°C° 0 mm 2 m/S 685 mmHg 47%
    17:00 +12°C° 0,1 mm 2 m/S 685 mmHg 50%
    18:00 +11°C° 0,1 mm 1 m/S 685 mmHg 54%
    19:00 +10°C° 0,1 mm 1 m/S 685 mmHg 57%
    20:00 +10°C° 0,1 mm 1 m/S 685 mmHg 58%
    21:00 +10°C° 0,1 mm 1 m/S 685 mmHg 60%
    22:00 +10°C° 0,1 mm 1 m/S 685 mmHg 61%
    23:00 +10°C° 0,2 mm 1 m/S 685 mmHg 63%
    Mehr zeigen